Weather Roundup
Issued by NWS Chicago, IL

Home | Current Version | Previous Version | Text Only | Print | Product List | Glossary On
Versions: 1 2 3 4 5 6 7 8 9 10 11 12 13 14 15 16 17 18 19 20 21 22 23 24 25 26 27 28 29 30 31 32 33 34 35 36 37 38 39 40 41 42 43 44 45 46 47 48 49 50
000
NZUS59 KLOT 261908
HRRLOT

CHICAGO AREA WEATHER ROUNDUP
NATIONAL WEATHER SERVICE CHICAGO/ROMEOVILLE IL
200 PM CDT MON SEP 26 2016

NOTE: "FAIR" INDICATES FEW OR NO CLOUDS BELOW 12,000 FEET WITH NO
SIGNIFICANT WEATHER AND/OR OBSTRUCTIONS TO VISIBILITY.

* THESE STATIONS ARE NOT UNDER NWS QUALITY CONTROL. THEY ALSO MAY NOT
  REPORT WEATHER SUCH AS PRECIPITATION OR FOG.

ILZ005-006-012>014-019>023-262000-
NORTHEAST ILLINOIS

CITY           SKY/WX    TMP DP  RH WIND       PRES   REMARKS
OHARE          MOSUNNY   69  37  30 W23G31    29.93F
MIDWAY         MOSUNNY   70  33  25 W21G30    29.95F
AURORA         SUNNY     70  36  28 W23G36    29.96F
LANSING*       SUNNY     70  41  35 W22G32    29.96F
JOLIET*        SUNNY     71  37  28 W9G24     29.98F
WAUKEGAN       SUNNY     67  39  35 W15G24    29.90F
DUPAGE AIRPORT SUNNY     68  35  29 W21G31    29.95F
WHEELING       SUNNY     68  34  28 W17G30    29.94F
KANKAKEE*      SUNNY     71  33  25 W17G28    30.00F
MORRIS*        SUNNY     71  33  24 W20G30    29.97F
LEWIS AIRPORT* SUNNY     70  42  36 W14G26    29.97F
NORTHERLY ISL    N/A     68  33  27 W15         N/A
$$

WIZ051-052-058>065-066-070>072-262000-
SOUTHEAST WISCONSIN

CITY           SKY/WX    TMP DP  RH WIND       PRES   REMARKS
MILWAUKEE      MOSUNNY   67  37  33 W20G32    29.89F
KENOSHA*       SUNNY     67  40  37 W20G31    29.90F
RACINE*        SUNNY     66  37  34 W20G30    29.90F
BURLINGTON     MOSUNNY   63  36  37 W16G30    29.91F
WAUKESHA       PTSUNNY   63  39  42 W16G31    29.90F
WEST BEND      PTSUNNY   63  36  36 W21G33    29.86F
$$

INZ001>003-010>013-019-020-262000-
NORTHWEST INDIANA

CITY           SKY/WX    TMP DP  RH WIND       PRES   REMARKS
GARY*          SUNNY     72  34  25 W26G39    29.97F
MICHIGAN CITY* NOT AVBL
RENSSELAER*    NOT AVBL
VALPARAISO     SUNNY     69  38  32 W16G29    29.97F
$$

LMZ740>746-262000-
SOUTHERN LAKE MICHIGAN

STATION/POSITION TIME  SKY/WX   TEMP WIND        PRES    VSBY
                                AIR  DIR/SP/G
                 (UTC)          (F)  (DEG/KT/KT) (MB)    (MI)
HARRISON CRIB    1800            65  250/ 28/ 32   N/A
BURNHAM HARBOR   1900            69  290/  5/ 19   N/A
CALUMET HARBOR   1800            67  240/ 13/ 23 1014.3F
BURNS HARBOR     1901            66  270/ 19/ 25 1014.6F
MICHIGAN CITY    1800            64  230/ 24/ 25   N/A
$$

ABBREVIATIONS USED IN REMARKS
   TC - TEMPERATURE IN CELSIUS
  WCI - WIND CHILL INDEX
   HX - HEAT INDEX
  VSB - VISIBILITY
$$




USA.gov is the U.S. government's official web portal to all federal, state and local government web resources and services.